Augusta Regional At Bush Field
KAGS : now visible

Airfield :











YOU CAN JOIN US ON...

 
LOGIN :

Register | Disclaimer

   EN    FR    IT 

 









Legend :    VFR   Marginal VFR   IFR   Intensive IFR   Very Intensive IFR
Visi :
Ceiling :
>= 8 km
>= 3000ft
5 to 8 km
1000 to 3000 ft
1500m to 5 km
500 to 1000 ft
800 to 1500m
200 to 500 ft
< 800m
< 200 ft
Symbols :   Thunderstorms  Fog  Heavy snow  Heavy precipitations  Wind > 20 kt






- Airport Elevation : 144 ft
- IATA code : AGS


KAGS - Augusta Regional At Bush Field

CURRENT METAR :
  • 021953Z AUTO 02009KT 10SM CLR 21/02 A2998 RMK AO2 SLP153 T02060022

EXPIRED METARs :
  • 021853Z 33005KT 10SM CLR 20/03 A3001 RMK AO2 SLP161 T02000028
  • 021753Z 35006KT 10SM CLR 19/03 A3003 RMK AO2 SLP169 T01890033 10194 20061 58024

TAF KAGS
Valid from the 02 at 18:00 until the 03 at 18:00 UTC


021720Z 0218/0318 35008KT P6SM SKC
FM030000 00000KT P6SM SKC
FM031500 30007KT P6SM SKC



MET'MAP, your aeronautical weather chart ! - Copyright ORBIFLY December 2007 - Disclaimer

ORBIFLY MET'MAP TEAM :

Programming & Development : Alexandra Zaïnal
Concept & original design : Baudouin d'Aumeries
Assistance for programming : Marc-Olivier Méhu
Technical & hardware support : Manuel Goepfert

Contact : metmap@orbifly.com




SOURCES & CREDITS :

   NOAA       Earth
Advisory